Overview Statistics Trail Chart Weather Telemetry Raw packets
 

This is the latest recevied weather packets stored in our database for station/object EA5DFV. If no packets are shown the sender has not sent any weather packets the latest 10 day(s).

<< 110 111 112 113 114 115 116 >>
Time Temp. Humidity Pressure Rain* Wind** Luminosity Snow
1787739297 31.11° C 61% 1011.6 hPa 0 mm - 640 W/m² -
1787738910 30.56° C 58% 1010.8 hPa 0 mm - 684 W/m² -
1787738612 30.56° C 60% 1009.7 hPa 0 mm - 434 W/m² -
1787738305 30.56° C 59% 1010 hPa 0 mm - 232 W/m² -
1787738016 30.56° C 59% 1010.1 hPa 0 mm - 172 W/m² -
1787737706 31.11° C 58% 1011.7 hPa 0 mm - 125 W/m² -
1787737401 31.67° C 58% 1012.6 hPa 0 mm - 392 W/m² -
1787737114 31.11° C 54% 1012.9 hPa 0 mm - 531 W/m² -
1787736805 31.11° C 52% 1012.5 hPa 0 mm - 346 W/m² -
1787736500 30.56° C 54% 1012.1 hPa 0 mm - 580 W/m² -
1787736213 30° C 57% 1011.1 hPa 0 mm - 643 W/m² -
1787735906 29.44° C 61% 1010.5 hPa 0 mm - 580 W/m² -
1787735617 29.44° C 60% 1010.1 hPa 0 mm - 587 W/m² -
1787735308 28.89° C 61% 1009.7 hPa 0 mm - 244 W/m² -
1787735025 28.89° C 61% 1009 hPa 1.02 mm - 239 W/m² -
1787734716 28.89° C 65% 1010.1 hPa 1.02 mm - 475 W/m² -
1787734426 28.33° C 68% 1010.6 hPa 1.02 mm - 550 W/m² -
1787734117 27.78° C 70% 1010.5 hPa 1.02 mm - 489 W/m² -
1787733810 27.22° C 72% 1010.1 hPa 1.02 mm - 381 W/m² -
1787733521 27.22° C 72% 1010 hPa 1.02 mm - 311 W/m² -
1787733212 26.67° C 71% 1010 hPa 1.02 mm - 292 W/m² -
1787732902 26.67° C 73% 1010.6 hPa 1.02 mm - 260 W/m² -
1787732620 26.11° C 74% 1010.4 hPa 1.02 mm - 202 W/m² -
1787732310 26.67° C 74% 1010.5 hPa 1.02 mm - 153 W/m² -
1787732021 26.67° C 74% 1010.2 hPa 1.02 mm - 97 W/m² -

* Rain latest hour (hover to see other rain measurements)
** Current wind speed in m/s (hover to see current wind gust speed)